Tracking 19792 objects as of 16-Jul-2019
HD Live streaming from Space Station
objects crossing your sky now

BREEZE-M DEB (TANK)

Track BREEZE-M DEB (TANK) now!
10-day predictions


NORAD ID: 28395
Int'l Code: 2004-031C
Perigee: 323.9 km
Apogee: 15,269.7 km
Inclination: 49.4 °
Period: 279.7 minutes
Semi major axis: 14167 km
RCS: 6.5834 m2 (large)
Launch date: August 4, 2004
Source: Commonwealth of Independent States (former USSR) (CIS)
Launch site: TYURATAM MISSILE AND SPACE COMPLEX (TTMTR)

Note: This is SATELLITE DEBRIS
aabbcc
Your satellite tracking list
Your tracking list is empty




NASA's NSSDC Master Catalog

Two Line Element Set (TLE):
1 28395U 04031C   19196.44824862  .00000261  00000-0  87520-4 0  9994
2 28395  49.4056 266.0736 5274546 172.3593 200.9745  5.14811855272286
Source of the keplerian elements: AFSPC